Tracking 23440 objects as of 12-Jun-2021
HD Live streaming from Space Station
objects crossing your sky now

INTELSAT 505

Track INTELSAT 505 now!
INTELSAT 505 is classified as:


NORAD ID: 13595
Int'l Code: 1982-097A
Perigee: 36,232.1 km
Apogee: 36,416.8 km
Inclination: 14.3 °
Period: 1,463.3 minutes
Semi major axis: 42695 km
RCS: 0.1428 m2 (medium)
Launch date: September 28, 1982
Source: International Telecommunications Satellite Organization (ITSO)
Launch site: AIR FORCE EASTERN TEST RANGE (AFETR)
aabbcc
Your satellite tracking list
Your tracking list is empty




NASA's NSSDC Master Catalog

Two Line Element Set (TLE):
1 13595U 82097A   21162.84611924 -.00000226  00000-0  00000+0 0  9996
2 13595  14.3294 344.6992 0021632  21.0811 345.2774  0.98408086110076
Source of the keplerian elements: AFSPC